User: anonymous   Login
Location: Newark
(48.0000°N, 67.0000°E)
Time: 00:54:12
(UTC+00:00)
Language:

FO-29 - Orbit

View from above orbital plane
View from above orbital plane
View from above satellite
View from above satellite

Ground track
Ground track

The orbit data is extracted from the following two-line orbital elements,

1 24278U 96046B   20093.30116864 -.00000025  00000-0  11708-4 0  9990
2 24278  98.5724 213.1459 0349877 211.9169 146.0343 13.53096991166833
Epoch (UTC): 02 April 2020 07:13:40
Eccentricity: 0.0349877
inclination: 98.5724°
perigee height: 800 km
apogee height: 1321 km
right ascension of ascending node: 213.1459°
argument of perigee: 211.9169°
revolutions per day: 13.53096991
mean anomaly at epoch: 146.0343°
orbit number at epoch: 16683

The dashed part of the orbit path shows where the satellite is in the earth's shadow,  

DLR